sat.trackr.live / text

‹ back to catalog

SUPERVIEW NEO-2 04

NORAD 62080 · 2024-218C

PAYLOAD ACTIVE UNKNOWN

§ Identity

Operator
Country
PRC
Launch date
2024-11-24
Launch site
JSC
Launch vehicle
Mass (kg)
RCS (m²)

External: N2YO · Heavens-Above · Gunter

§ Orbital elements

Epoch: 2026-05-24T09:55:51.355776Z

Period
94.75 min
Inclination
97.4394°
Eccentricity
0.0001309
Mean motion
15.19720489 rev/d
Perigee alt
505.8 km
Apogee alt
507.6 km
Semi-major
6,884.8 km
B*
1.2941e-5
RAAN
152.0873°
Arg perigee
110.6080°
Mean anomaly
249.5296°
Rev number
8,283

§ Raw data

SUPERVIEW NEO-2 041 62080U 24218C   26144.41378884  .00000209  00000+0  12941-4 0  99942 62080  97.4394 152.0873 0001309 110.6080 249.5296 15.19720489 82833

JSON: /api/v1/satellites/62080 · /tle

For live sub-satellite position, see the globe view (requires WebGL).

§ Visibility from observer

Set your observer location to see the next 7 days of passes ≥ 10°. The values pass through the URL so the page stays shareable.

No JS? Fill the form by hand. The geolocation button needs JavaScript.